Tracking 20040 objects as of 18-Nov-2019
Live streaming from Space Station
objects crossing your sky now

DELTA 1 DEB

Track DELTA 1 DEB now!
10-day predictions


NORAD ID: 720
Int'l Code: 1963-054C
Perigee: 666.8 km
Apogee: 818.4 km
Inclination: 58.5 °
Period: 99.5 minutes
Semi major axis: 7113 km
RCS: 0.0483 m2 (small)
Launch date: December 21, 1963
Source: United States (US)
Launch site: AIR FORCE WESTERN TEST RANGE (AFWTR)

Note: This is SATELLITE DEBRIS
aabbcc
Your satellite tracking list
Your tracking list is empty




NASA's NSSDC Master Catalog

Two Line Element Set (TLE):
1   720U 63054C   19321.55885419 -.00000088 +00000-0 +20383-4 0  9995
2   720 058.4744 054.4485 0106562 294.8330 064.1645 14.46996175933296
Source of the keplerian elements: AFSPC